Find DMSP 5528

NORAD ID: 5903 Int'l Des: 1972-018 Owner: SAMSO Country: US operational
LEOCIRCULARRETROGRADE

Live Position

Loading 3D Globe...

About DMSP 5528

Description loading...

Upcoming Passes

Passes for default location (London). Set your location on the main map for personalized predictions.

Altitude History

Loading altitude history...

Two-Line Element Set

1 05903U 72018A 26106.22384862 .00000105 00000-0 63968-4 0 9997
2 05903 99.1242 297.5340 0049467 272.1440 87.4074 14.25479109881386
Epoch: Apr 16, 2026 • Age: 13 hours

Current Status

Altitude 801.2 km
Velocity 7.46 km/s
Sub-Earth Point -22.72°S, 175.9°E
Type other

Most Searched